Regional Weather Roundup
Issued by NWS Little Rock, AR

Home | Current Version | Previous Version | Text Only | Print | Product List | Glossary Off
Versions: 1 2 3 4 5 6 7 8 9 10 11 12 13 14 15 16 17 18 19 20 21 22 23 24 25 26 27 28 29 30 31 32 33 34 35 36 37 38 39 40 41 42 43 44 45 46 47 48 49

000
ASUS44 KLZK 070805
RWRLZK

WEATHER ROUNDUP FOR ARKANSAS
NATIONAL WEATHER SERVICE LITTLE ROCK AR
200 AM CST SUN FEB 07 2016

NOTE: "FAIR" INDICATES FEW OR NO CLOUDS BELOW 12,000 FEET WITH NO
SIGNIFICANT WEATHER AND/OR OBSTRUCTIONS TO VISIBILITY.

ARZ001-003-010-029-070900-
NORTHWEST ARKANSAS

CITY           SKY/WX    TMP DP  RH WIND       PRES   REMARKS
FAYETTEVILLE   PTCLDY    30  26  85 S6        30.22S WCI  24
FORT SMITH     CLEAR     36  25  64 W3        30.26S
HARRISON       CLOUDY    41  25  53 S3        30.20F
BENTONVILLE    CLOUDY   N/A N/A N/A SW6       30.20S
ROGERS         PTCLDY    38  30  73 SW8       30.20F
SILOAM SPGS    CLOUDY    36  25  64 SW6       30.21S
HIGHFILL       PTCLDY    37  30  75 SW8       30.19F
$$

ARZ004-005-016-070900-
NORTH CENTRAL ARKANSAS

CITY           SKY/WX    TMP DP  RH WIND       PRES   REMARKS
BATESVILLE     CLEAR     39  21  48 W6        30.25S
FLIPPIN        CLEAR     37  18  44 CALM      30.19F
MTN HOME       CLEAR     37  18  46 S5        30.20F HAZE
$$

ARZ040-041-070900-
WEST CENTRAL ARKANSAS

CITY           SKY/WX    TMP DP  RH WIND       PRES   REMARKS
MENA           CLEAR     30  27  86 CALM      30.26S
MOUNT IDA      CLEAR     27  21  78 CALM      30.23S
$$

ARZ009-017-025-026-028-070900-
NORTHEAST ARKANSAS

CITY           SKY/WX    TMP DP  RH WIND       PRES   REMARKS
CORNING        FAIR      36  27  69 SW10      30.24S
JONESBORO      CLEAR     29  24  82 CALM      30.25F
NEWPORT        CLEAR     33  26  76 S7        30.26F WCI  27
WALNUT RIDGE   CLEAR     30  21  69 SW8       30.24F WCI  23
BLYTHEVILLE    CLEAR     35  26  69 SW7       30.26F WCI  29
$$

ARZ022-023-033-042-044-070900-
CENTRAL ARKANSAS

CITY           SKY/WX    TMP DP  RH WIND       PRES   REMARKS
LITTLE ROCK    PTCLDY    33  25  72 CALM      30.27F
N LITTLE ROCK    N/A     41  24  52 SW6       30.27F
JACKSONVILLE   CLEAR     27  23  84 CALM      30.25F
SEARCY         CLEAR     27  25  92 CALM      30.28F
HOT SPRINGS    CLEAR     31  24  75 CALM      30.27F
RUSSELLVILLE   CLOUDY    29  23  78 CALM      30.25S
CLINTON        FAIR      25  23  93 CALM      30.27S
$$

ARZ036-070900-
EAST ARKANSAS

CITY           SKY/WX    TMP DP  RH WIND       PRES   REMARKS
WEST MEMPHIS   CLEAR     30  28  92 S3        30.26F
$$

ARZ050-053-066-070-073-070900-
SOUTHWEST ARKANSAS

CITY           SKY/WX    TMP DP  RH WIND       PRES   REMARKS
ARKADELPHIA    FAIR      29  29 100 CALM      30.29F
CAMDEN         CLEAR     28  25  86 CALM      30.29F
TEXARKANA      CLEAR     37  31  78 SW7       30.29F
EL DORADO      CLEAR     30  26  85 CALM      30.30F
DE QUEEN       CLEAR     28  27  96 CALM      30.28F
$$

ARZ056-057-069-070900-
SOUTHEAST ARKANSAS

CITY           SKY/WX    TMP DP  RH WIND       PRES   REMARKS
PINE BLUFF     CLEAR     30  26  85 S3        30.28F
STUTTGART      CLEAR     37  27  65 S7        30.27F
MONTICELLO     CLEAR     36  26  67 CALM      30.29F

$$






USA.gov is the U.S. government's official web portal to all federal, state and local government web resources and services.